| time (UTC) | temp F | wind direction | speed knots | gust knots | rain 1hr in | rain 24hr in | rain mn in | humidity % | barometer mb |
| 20260906124501 | 42 | 329 | 0.0 | 0.0 | 0.00 | 0.00 | 0.00 | 96 | 1021.0 |
| 20260906123055 | 42 | 329 | 0.0 | 0.0 | 0.00 | 0.00 | 0.00 | 97 | 1020.9 |
| 20260906121521 | 42 | 329 | 0.0 | 0.0 | 0.00 | 0.00 | 0.00 | 95 | 1020.8 |
| 20260906114512 | 44 | 328 | 0.0 | 0.0 | 0.00 | 0.00 | 0.00 | 95 | 1020.9 |
| 20260906113059 | 45 | 329 | 0.0 | 0.0 | 0.00 | 0.00 | 0.00 | 96 | 1020.9 |
| 20260906111551 | 45 | 328 | 0.0 | 0.0 | 0.00 | 0.00 | 0.00 | 91 | 1020.9 |
| 20260906110057 | 47 | 328 | 0.0 | 0.0 | 0.00 | 0.00 | 0.00 | 92 | 1020.8 |
| 20260906104553 | 48 | 329 | 0.0 | 0.0 | 0.00 | 0.00 | 0.00 | 92 | 1020.8 |
| 20260906103012 | 48 | 329 | 0.0 | 0.0 | 0.00 | 0.00 | 0.00 | 92 | 1020.8 |
| 20260906101603 | 49 | 328 | 0.0 | 0.0 | 0.00 | 0.00 | 0.00 | 91 | 1020.8 |
| 20260906100047 | 49 | 328 | 0.0 | 0.9 | 0.00 | 0.00 | 0.00 | 90 | 1020.7 |
| 20260906094605 | 49 | 330 | 0.0 | 1.7 | 0.00 | 0.00 | 0.00 | 89 | 1020.9 |
| 20260906093053 | 50 | 139 | 0.0 | 0.9 | 0.00 | 0.00 | 0.00 | 89 | 1020.7 |
| 20260906091549 | 50 | 240 | 0.0 | 0.0 | 0.00 | 0.00 | 0.00 | 87 | 1020.5 |
| 20260906090057 | 51 | 69 | 0.0 | 0.0 | 0.00 | 0.00 | 0.00 | 87 | 1020.5 |
| 20260906084558 | 51 | 69 | 0.0 | 0.0 | 0.00 | 0.00 | 0.00 | 86 | 1020.6 |
| 20260906083104 | 52 | 65 | 0.0 | 0.9 | 0.00 | 0.00 | 0.00 | 85 | 1020.7 |
| 20260906081556 | 52 | 66 | 0.0 | 1.7 | 0.00 | 0.00 | 0.00 | 86 | 1020.6 |
| 20260906080047 | 52 | 69 | 0.0 | 2.6 | 0.00 | 0.00 | 0.00 | 86 | 1020.5 |
| 20260906074554 | 53 | 73 | 0.9 | 2.6 | 0.00 | 0.00 | 0.00 | 86 | 1020.6 |
| 20260906073043 | 52 | 115 | 0.0 | 1.7 | 0.00 | 0.00 | 0.00 | 85 | 1020.5 |
| 20260906071501 | 53 | 86 | 0.0 | 0.9 | 0.00 | 0.00 | 0.00 | 84 | 1020.4 |
| 20260906070047 | 53 | 318 | 0.0 | 0.9 | 0.00 | 0.00 | 0.00 | 84 | 1020.3 |
| 20260906064602 | 53 | 354 | 0.0 | 1.7 | 0.00 | 0.00 | 0.00 | 83 | 1020.2 |
| 20260906063052 | 54 | 340 | 0.9 | 1.7 | 0.00 | 0.00 | 0.00 | 81 | 1020.2 |
| 20260906061504 | 54 | 40 | 0.9 | 5.2 | 0.00 | 0.00 | 0.00 | 80 | 1019.9 |
| 20260906060133 | 55 | 356 | 1.7 | 8.7 | 0.00 | 0.00 | 0.00 | 78 | 1019.8 |
| 20260906054605 | 56 | 346 | 0.9 | 6.1 | 0.00 | 0.00 | 0.00 | 77 | 1019.6 |
| 20260906053059 | 57 | 317 | 2.6 | 7.0 | 0.00 | 0.00 | 0.00 | 75 | 1019.5 |
| 20260906051600 | 59 | 298 | 2.6 | 9.6 | 0.00 | 0.00 | 0.00 | 69 | 1019.4 |
| 20260906050003 | 60 | 112 | 2.6 | 11.3 | 0.00 | 0.00 | 0.00 | 63 | 1018.9 |
| 20260906044555 | 60 | 200 | 2.6 | 9.6 | 0.00 | 0.00 | 0.00 | 64 | 1018.7 |
| 20260906043050 | 60 | 252 | 3.5 | 9.6 | 0.00 | 0.00 | 0.00 | 65 | 1018.4 |
| 20260906041600 | 60 | 179 | 1.7 | 7.0 | 0.00 | 0.00 | 0.00 | 65 | 1018.1 |
| 20260906040046 | 61 | 146 | 3.5 | 10.4 | 0.00 | 0.00 | 0.00 | 64 | 1017.9 |
| 20260906034503 | 62 | 198 | 6.1 | 10.4 | 0.00 | 0.00 | 0.00 | 61 | 1017.8 |
| 20260906033055 | 63 | 203 | 4.3 | 12.2 | 0.00 | 0.00 | 0.00 | 59 | 1017.7 |
| 20260906031554 | 65 | 141 | 3.5 | 12.2 | 0.00 | 0.00 | 0.00 | 56 | 1017.4 |
| 20260906030058 | 65 | 162 | 5.2 | 11.3 | 0.00 | 0.00 | 0.00 | 54 | 1017.5 |
| 20260906024556 | 66 | 190 | 7.0 | 14.8 | 0.00 | 0.00 | 0.00 | 53 | 1017.4 |
| 20260906023051 | 66 | 229 | 7.0 | 13.9 | 0.00 | 0.00 | 0.00 | 53 | 1017.2 |
| 20260906021602 | 66 | 198 | 5.2 | 13.0 | 0.00 | 0.00 | 0.00 | 53 | 1017.0 |
| 20260906020051 | 67 | 240 | 7.0 | 12.2 | 0.00 | 0.00 | 0.00 | 53 | 1016.9 |
| 20260906014549 | 67 | 165 | 4.3 | 13.9 | 0.00 | 0.00 | 0.00 | 52 | 1016.9 |
| 20260906013059 | 67 | 286 | 7.0 | 14.8 | 0.00 | 0.00 | 0.00 | 51 | 1016.9 |
| 20260906011550 | 67 | 119 | 4.3 | 13.9 | 0.00 | 0.00 | 0.00 | 54 | 1016.7 |
| 20260906010002 | 67 | 245 | 7.8 | 15.6 | 0.00 | 0.00 | 0.00 | 54 | 1016.8 |
| 20260906004607 | 68 | 253 | 7.8 | 20.9 | 0.00 | 0.00 | 0.00 | 52 | 1017.0 |
| 20260906003056 | 68 | 265 | 7.0 | 20.0 | 0.00 | 0.00 | 0.00 | 53 | 1016.9 |
| 20260906001601 | 68 | 146 | 7.0 | 18.2 | 0.00 | 0.00 | 0.00 | 52 | 1016.9 |
| 20260906000058 | 68 | 159 | 7.0 | 14.8 | 0.00 | 0.00 | 0.00 | 52 | 1017.1 |
| 20260905234548 | 68 | 205 | 8.7 | 16.5 | 0.00 | 0.00 | 0.00 | 52 | 1017.0 |
| 20260905233057 | 68 | 214 | 9.6 | 16.5 | 0.00 | 0.00 | 0.00 | 53 | 1017.0 |
| 20260905231555 | 68 | 175 | 7.8 | 14.8 | 0.00 | 0.00 | 0.00 | 54 | 1017.3 |
| 20260905230157 | 67 | 169 | 6.1 | 15.6 | 0.00 | 0.00 | 0.00 | 55 | 1017.3 |
| 20260905224551 | 68 | 190 | 9.6 | 18.2 | 0.00 | 0.00 | 0.00 | 54 | 1017.2 |
| 20260905223101 | 68 | 141 | 7.8 | 17.4 | 0.00 | 0.00 | 0.00 | 54 | 1017.2 |
| 20260905221559 | 68 | 188 | 7.0 | 18.2 | 0.00 | 0.00 | 0.00 | 54 | 1017.3 |
| 20260905220047 | 68 | 176 | 5.2 | 16.5 | 0.00 | 0.00 | 0.00 | 55 | 1017.1 |
| 20260905214505 | 68 | 262 | 7.0 | 15.6 | 0.00 | 0.00 | 0.00 | 54 | 1017.2 |
| 20260905213055 | 66 | 193 | 7.0 | 15.6 | 0.00 | 0.00 | 0.00 | 56 | 1017.4 |
| 20260905211549 | 65 | 189 | 5.2 | 15.6 | 0.00 | 0.00 | 0.00 | 58 | 1017.4 |
| 20260905210001 | 65 | 178 | 9.6 | 17.4 | 0.00 | 0.00 | 0.00 | 58 | 1017.3 |
| 20260905204655 | 66 | 188 | 8.7 | 21.7 | 0.00 | 0.00 | 0.00 | 56 | 1017.2 |
| 20260905203046 | 67 | 229 | 9.6 | 20.9 | 0.00 | 0.00 | 0.00 | 56 | 1017.1 |
| 20260905201700 | 67 | 233 | 7.8 | 16.5 | 0.00 | 0.00 | 0.00 | 57 | 1017.0 |
| 20260905200115 | 67 | 187 | 8.7 | 17.4 | 0.00 | 0.00 | 0.00 | 55 | 1017.0 |
| 20260905194547 | 67 | 245 | 6.1 | 15.6 | 0.00 | 0.00 | 0.00 | 57 | 1016.9 |
| 20260905193101 | 68 | 201 | 8.7 | 18.2 | 0.00 | 0.00 | 0.00 | 56 | 1017.0 |
| 20260905191558 | 68 | 174 | 7.0 | 14.8 | 0.00 | 0.00 | 0.00 | 57 | 1016.9 |
| 20260905190149 | 67 | 229 | 6.1 | 15.6 | 0.00 | 0.00 | 0.00 | 57 | 1017.0 |
| 20260905184608 | 66 | 172 | 6.1 | 14.8 | 0.00 | 0.00 | 0.00 | 60 | 1017.1 |
| 20260905183050 | 65 | 226 | 6.1 | 12.2 | 0.00 | 0.00 | 0.00 | 62 | 1017.0 |
| 20260905181502 | 65 | 223 | 3.5 | 12.2 | 0.00 | 0.00 | 0.00 | 63 | 1017.1 |
| 20260905180059 | 64 | 189 | 6.1 | 13.0 | 0.00 | 0.00 | 0.00 | 65 | 1017.1 |
| 20260905174552 | 60 | 207 | 2.6 | 8.7 | 0.00 | 0.00 | 0.00 | 72 | 1017.2 |
| 20260905173000 | 53 | 204 | 0.0 | 1.7 | 0.00 | 0.00 | 0.00 | 83 | 1017.2 |
| 20260905171558 | 48 | 68 | 0.0 | 1.7 | 0.00 | 0.00 | 0.00 | 87 | 1017.4 |
| 20260905170049 | 45 | 97 | 0.0 | 1.7 | 0.00 | 0.00 | 0.00 | 89 | 1017.5 |
| 20260905164502 | 45 | 1 | 0.0 | 1.7 | 0.00 | 0.00 | 0.00 | 89 | 1017.3 |
| 20260905163054 | 45 | 85 | 0.0 | 3.5 | 0.00 | 0.00 | 0.00 | 89 | 1017.1 |
| 20260905161548 | 44 | 324 | 0.0 | 1.7 | 0.00 | 0.00 | 0.00 | 90 | 1017.1 |
| 20260905160001 | 43 | 309 | 0.0 | 1.7 | 0.00 | 0.00 | 0.00 | 90 | 1017.1 |
| 20260905154602 | 43 | 353 | 0.0 | 0.9 | 0.00 | 0.00 | 0.00 | 91 | 1017.1 |
| 20260905153050 | 43 | 357 | 0.0 | 2.6 | 0.00 | 0.00 | 0.00 | 91 | 1017.1 |
| 20260905151506 | 42 | 158 | 0.0 | 0.9 | 0.00 | 0.00 | 0.00 | 91 | 1017.2 |
| 20260905150049 | 40 | 349 | 0.0 | 0.9 | 0.00 | 0.00 | 0.00 | 92 | 1017.2 |
| 20260905144559 | 40 | 232 | 0.0 | 1.7 | 0.00 | 0.00 | 0.00 | 92 | 1017.7 |
| 20260905143051 | 39 | 357 | 0.0 | 1.7 | 0.00 | 0.00 | 0.00 | 91 | 1017.5 |
| 20260905141546 | 40 | 359 | 0.0 | 1.7 | 0.00 | 0.00 | 0.00 | 93 | 1017.4 |
| 20260905140057 | 39 | 302 | 0.0 | 0.9 | 0.00 | 0.00 | 0.00 | 91 | 1017.7 |
| 20260905134554 | 40 | 88 | 0.0 | 0.0 | 0.00 | 0.00 | 0.00 | 91 | 1017.5 |
| 20260905133043 | 40 | 195 | 0.0 | 0.9 | 0.00 | 0.00 | 0.00 | 91 | 1017.8 |
| 20260905131555 | 40 | 195 | 0.0 | 0.0 | 0.00 | 0.00 | 0.00 | 93 | 1017.8 |
| 20260905130101 | 40 | 195 | 0.0 | 1.7 | 0.00 | 0.00 | 0.00 | 91 | 1017.8 |